TimeMDT,TemperatureF,Dew PointF,Humidity,Sea Level PressureIn,VisibilityMPH,Wind Direction,Wind SpeedMPH,Gust SpeedMPH,PrecipitationIn,Events,Conditions,WindDirDegrees,DateUTC
12:53 AM,46.0,43.0,89,29.44,10.0,SW,12.7,-,0.07,Rain,Light Rain,230,2013-10-11 06:53:00
1:53 AM,45.0,43.0,93,29.43,10.0,SSW,8.1,-,0.00,Rain,Light Rain,210,2013-10-11 07:53:00
2:53 AM,44.1,42.1,93,29.43,10.0,South,9.2,-,0.00,,Partly Cloudy,190,2013-10-11 08:53:00
3:53 AM,44.1,39.9,85,29.44,10.0,South,11.5,-,N/A,,Overcast,180,2013-10-11 09:53:00
4:53 AM,45.0,39.0,80,29.47,10.0,SSW,10.4,-,N/A,,Overcast,200,2013-10-11 10:53:00
5:53 AM,44.1,37.9,79,29.52,10.0,SW,6.9,-,N/A,,Clear,230,2013-10-11 11:53:00
6:53 AM,45.0,37.0,74,29.57,10.0,SW,11.5,-,N/A,,Overcast,220,2013-10-11 12:53:00
7:53 AM,46.0,37.9,73,29.64,10.0,SW,8.1,-,N/A,,Overcast,230,2013-10-11 13:53:00
8:53 AM,51.1,37.0,59,29.67,10.0,WNW,12.7,-,N/A,,Overcast,300,2013-10-11 14:53:00
9:53 AM,55.0,39.9,57,29.70,10.0,NW,20.7,28.8,N/A,,Mostly Cloudy,310,2013-10-11 15:53:00
10:53 AM,57.0,39.9,53,29.74,10.0,NNW,27.6,34.5,N/A,,Clear,340,2013-10-11 16:53:00
11:53 AM,57.0,39.9,53,29.77,10.0,NNW,23.0,32.2,N/A,,Clear,340,2013-10-11 17:53:00
12:53 PM,59.0,39.0,48,29.76,10.0,NW,21.9,29.9,N/A,,Partly Cloudy,320,2013-10-11 18:53:00
1:53 PM,57.9,39.9,51,29.78,10.0,North,23.0,29.9,N/A,,Clear,350,2013-10-11 19:53:00
2:53 PM,55.0,37.9,53,29.82,10.0,NNW,15.0,21.9,N/A,,Partly Cloudy,340,2013-10-11 20:53:00
3:53 PM,54.0,37.0,53,29.84,10.0,North,12.7,-,N/A,,Clear,350,2013-10-11 21:53:00
4:53 PM,54.0,39.0,57,29.86,10.0,North,9.2,-,N/A,,Partly Cloudy,360,2013-10-11 22:53:00
5:53 PM,51.1,39.9,66,29.91,10.0,NE,3.5,-,N/A,,Clear,40,2013-10-11 23:53:00
6:53 PM,50.0,39.9,68,29.95,10.0,NE,3.5,-,N/A,,Mostly Cloudy,50,2013-10-12 00:53:00
7:53 PM,48.0,39.9,74,29.99,10.0,NE,9.2,-,N/A,,Scattered Clouds,40,2013-10-12 01:53:00
8:53 PM,44.1,37.9,79,30.00,10.0,NE,6.9,-,N/A,,Clear,40,2013-10-12 02:53:00
9:53 PM,44.1,37.9,79,30.01,10.0,Calm,Calm,-,N/A,,Overcast,0,2013-10-12 03:53:00
10:53 PM,44.1,39.0,82,30.03,10.0,SE,3.5,-,N/A,,Overcast,140,2013-10-12 04:53:00
11:53 PM,44.1,37.9,79,30.03,10.0,East,3.5,-,N/A,,Overcast,100,2013-10-12 05:53:00